Simultaneous Nadir Overpasses (SNOs) Predictions

Prediction of SNOs between METOP-B and NPP Satellite Orbit:

Table of predicted SNOs for the next 14.0 days since TLE Epoch: 3/12/2019
Index Date (METOP-B) Time (METOP-B) Lat,Lon (METOP-B) SZA (METOP-B ) Date (NPP) Time (NPP) Lat,Lon (NPP) SZA (NPP ) Distance(km) Time Diff (sec)
1 03/25/2019 19:40:57 -73.47, 58.01 108.38 03/25/2019 19:39:49 -73.48, 55.26 108.22 86.89 68
2 03/25/2019 20:31:41 73.27,-135.12 71.43 03/25/2019 20:30:31 73.29,-137.00 71.56 60.29 70
3 03/25/2019 21:22:24 -73.21, 32.06 108.65 03/25/2019 21:21:13 -73.19, 30.54 108.57 49.05 71
4 03/25/2019 22:13:08 73.00,-161.05 71.16 03/25/2019 22:11:55 73.00,-161.73 71.21 22.21 73
5 03/25/2019 23:03:52 -72.88, 6.03 108.96 03/25/2019 23:02:37 -72.90, 5.80 108.92 7.75 75
6 03/25/2019 23:54:33 72.83, 173.25 70.98 03/25/2019 23:53:22 72.85, 173.20 71.02 3.19 71
7 03/26/2019 00:45:15 -72.82, -19.45 109.05 03/26/2019 00:44:05 -72.80, -19.38 109.05 2.83 70
8 03/26/2019 01:35:55 72.81, 147.87 70.94 03/26/2019 01:34:51 72.81, 147.91 70.95 1.56 64
9 03/26/2019 02:26:37 -72.80, -44.83 109.09 03/26/2019 02:25:35 -72.81, -44.77 109.07 2.58 62
10 03/26/2019 03:17:17 72.79, 122.49 70.89 03/26/2019 03:16:21 72.82, 122.52 70.93 3.32 56




NCC Satellite Simultaneous Nadir Overpasses (SNOs) Prediction Service
